Regional Weather Roundup
Issued by NWS Burlington, VT

Current Version | Previous Version | Text Only | Print | Product List | Glossary On
Versions: 1 2 3 4 5 6 7 8 9 10 11 12 13 14 15 16 17 18 19 20 21 22 23 24 25 26 27 28 29 30 31 32 33 34 35 36 37 38 39 40 41 42 43 44 45 46 47 48 49 50
000
ASUS41 KBTV 030230
RWRBTV
VERMONT REGIONAL WEATHER ROUNDUP
NATIONAL WEATHER SERVICE BURLINGTON VT
1000 PM EDT MON MAY 02 2016

NOTE: "FAIR" INDICATES FEW OR NO CLOUDS BELOW 12,000 FEET WITH NO
SIGNIFICANT WEATHER AND/OR OBSTRUCTIONS TO VISIBILITY.

* THESE REPORTS ARE NOT UNDER NWS QUALITY CONTROL AND/OR DO NOT
  REPORT WEATHER SUCH AS PRECIPITATION AND FOG.

VTZ001>019-030300-
_____VERMONT_____


CITY           SKY/WX    TMP DP  RH WIND       PRES   REMARKS
BURLINGTON     CLOUDY    46  43  89 NW5       29.97R
MONTPELIER     CLOUDY    43  41  93 W7        29.98R
MORRISVILLE    CLOUDY    44  42  93 N6        29.96R
ST. JOHNSBURY*   N/A     45  42  89 MISG      29.93R
LYNDONVILLE*   DRZL/FOG  43  42  97 S3        29.94R VSB 1/2
MIDDLEBURY*    CLOUDY    44  44 100 CALM      29.97R
RUTLAND*       CLOUDY    45  43  93 N5        29.97R
SPRINGFIELD    CLOUDY    46  44  93 CALM      29.96R
HIGHGATE*      CLOUDY    44  42  93 CALM      29.96S
NEWPORT*       CLOUDY    42  42  99 CALM      29.94R FOG
BENNINGTON     LGT RAIN  48  47  96 CALM      29.95R FOG
SUTTON*          N/A     41 N/A N/A MISG        N/A
GALLUP MILLS*    N/A     39 N/A N/A MISG        N/A
UNION VILLAGE*   N/A     45 N/A N/A MISG        N/A
MT. MANSFIELD*   N/A     34 N/A N/A NW20        N/A  WCI  22

_____LAKE CHAMPLAIN_____


CITY           SKY/WX    TMP DP  RH WIND       PRES   REMARKS
COLCHESTER RF*   N/A     45  45 100 NW9         N/A
DIAMOND ISL*     N/A     43  45 100 NE6         N/A

$$

NYZ007-026>031-035-052-083-087-030300-
_____NORTHERN NEW YORK_____


CITY           SKY/WX    TMP DP  RH WIND       PRES   REMARKS
SARANAC LAKE   CLOUDY    41  39  93 CALM      29.95R
MASSENA        CLOUDY    46  41  82 CALM      30.01S
OGDENSBURG*    CLOUDY    46  45  93 CALM      30.00F
STARK FALLS*     N/A     43 N/A N/A NW2         N/A
WATERTOWN      CLOUDY    41  41 100 NE3       30.00F FOG
FT DRUM        MOCLDY    45  43  93 NE5       29.99S
ALBANY         CLOUDY    51  47  86 CALM      29.95S
GLENS FALLS    LGT RAIN  48  45  89 N6        29.96R FOG

$$
NHZ002-005-011-030300-
_____NEW HAMPSHIRE_____


CITY           SKY/WX    TMP DP  RH WIND       PRES   REMARKS
LEBANON        CLOUDY    45  43  93 S3        29.95S
KEENE          CLOUDY    46  45  93 CALM      29.97R
MT WASHINGTON  FRZ DRZL  27  27 100 W26         N/A  VSB 1/16WCI  11
PLYMOUTH       CLOUDY    45  43  95 CALM      29.95R
WHITEFIELD     CLOUDY    42  39  89 S3        29.93R

$$

_____REGIONAL QUEBEC LOCATIONS_____


CITY           SKY/WX    TMP DP  RH WIND       PRES   REMARKS
MONTREAL       MOCLDY    45  41  87 N6        29.99R
QUEBEC CITY    LGT RAIN  41  39  93 E9        29.99F
SHERBROOKE     CLOUDY    41  41 100 NE2       29.93S

_____REGIONAL ONTARIO LOCATIONS_____


CITY           SKY/WX    TMP DP  RH WIND       PRES   REMARKS
OTTAWA         CLOUDY    45  43  93 SE3       30.01S

______KEY______
VSB  - VISIBILITY IN MILES
WCI  - WIND CHILL INDEX
HX   - HEAT INDEX
$$
NNNN



USA.gov is the U.S. government's official web portal to all federal, state and local government web resources and services.